Regional Weather Roundup
Issued by NWS

Home | Current Version | Previous Version | Text Only | Print | Product List | Glossary Off
Versions: 1 2 3 4 5 6 7 8 9 10 11 12 13 14 15 16 17 18 19 20 21 22 23 24 25 26 27 28 29 30 31 32 33 34 35 36 37 38 39 40 41 42 43 44 45 46 47 48 49 50

000
ASUS43 KMKX 200721
RWRWI

WISCONSIN REGIONAL WEATHER ROUNDUP
NATIONAL WEATHER SERVICE MILWAUKEE/SULLIVAN WI
200 AM CDT SUN AUG 20 2017

NOTE: "FAIR" INDICATES FEW OR NO CLOUDS BELOW 12,000 FEET WITH NO
SIGNIFICANT WEATHER AND/OR OBSTRUCTIONS TO VISIBILITY.

WIZ001-002-006>008-014>016-023>028-200800-
NORTHWEST WISCONSIN

CITY           SKY/WX    TMP DP  RH WIND       PRES   REMARKS
SUPERIOR ARPT    N/A     59  59 100 SW5       29.87S
ASHLAND        PTCLDY    57  56  96 S3        29.90F
HAYWARD        CLEAR     55  53  93 CALM      29.92F
SIREN          CLEAR     62  60  94 S5        29.90F
CUMBERLAND     CLEAR     59  57  94 CALM      29.92F
RICE LAKE      CLEAR     59  58  98 CALM      29.93F FOG
CHETEK         CLEAR     59  59 100 E5        29.92F
LADYSMITH      CLEAR     59  58  95 CALM      29.95F
EAU CLAIRE     CLEAR     61  60  97 CALM      29.92S
MENOMONIE      CLEAR     61  60  97 CALM      29.92F
NEW RICHMOND   CLEAR     62  61  97 S3        29.91S
OSCEOLA        CLEAR     62  62 100 CALM      29.93S
$$

WIZ003>005-009-010-017-018-200800-
NORTH CENTRAL WISCONSIN

CITY           SKY/WX    TMP DP  RH WIND       PRES   REMARKS
MANITOWISH WTR FOG       54  54 100 CALM      29.95F VSB 1/2
ARBOR VITAE    CLEAR     59  57  93 CALM      29.96S
WOODRUFF       CLEAR     59  57  93 CALM      29.96S
RHINELANDER    PTCLDY    56  56 100 CALM      29.98S FOG
EAGLE RIVER    CLEAR     55  55 100 CALM      29.96F FOG
LAND O LAKES   CLEAR     53  53 100 CALM      29.99R FOG
PHILLIPS       CLEAR     58  58 100 CALM      29.96S
TOMAHAWK         N/A     53  52  97 CALM      29.97F
MEDFORD        CLEAR     57  56  95 S3        29.97S
MERRILL        CLEAR     54  54 100 CALM      29.98S
$$

WIZ029-030-035-036-043>047-200800-
CENTRAL WISCONSIN

CITY           SKY/WX    TMP DP  RH WIND       PRES   REMARKS
WAUSAU         CLEAR     59  58  96 E5        29.96S
MOSINEE        CLEAR     55  55 100 CALM      29.98F
MARSHFIELD     CLEAR     60  57  89 CALM      29.96F
STEVENS POINT  CLEAR     54  54 100 CALM      29.98F
WAUPACA        CLEAR     60  59  97 CALM      29.98S
WAUTOMA        CLEAR     56  56 100 CALM      29.98S
WISC RAPIDS    CLEAR     58  57  97 CALM      29.98F
CAMP DOUGLAS   CLEAR     59  59 100 CALM      29.96S
$$

WIZ011>013-019>022-031-037>040-048>050-200800-
NORTHEAST WISCONSIN

CITY           SKY/WX    TMP DP  RH WIND       PRES   REMARKS
ANTIGO         CLEAR     54  54 100 CALM      29.99S
SHAWANO        FOG       61  59  93 CALM      29.97R VSB 3/4
OCONTO         CLEAR     58  56  96 CALM      29.96R
STURGEON BAY   CLEAR     64  60  87 SW5       29.97R
GREEN BAY      CLEAR     59  59 100 CALM      29.97R
MANITOWOC      CLEAR     66  60  81 W5        29.98S
APPLETON       CLEAR     64  55  72 SW5       29.97S
CLINTONVILLE   CLEAR     59  55  88 CALM      29.98R
OSHKOSH        CLEAR     65  59  81 S5        29.97S
$$

WIZ032>034-041-042-053>061-200800-
SOUTHWEST WISCONSIN

CITY           SKY/WX    TMP DP  RH WIND       PRES   REMARKS
LA CROSSE      CLEAR     66  62  87 SE7       29.93F
SPARTA         CLEAR     53  53  99 CALM      29.96F
VIROQUA        CLEAR     63  61  93 CALM      29.97S
BOSCOBEL       FOG       58  57  97 CALM      29.97S VSB 1/4
PRAIRIE DU CHI CLOUDY    61  59  94 SE3       29.95F
PLATTEVILLE    CLEAR     63  62  97 SE7       29.98F
$$

WIZ056-057-062-063-064-067-068-200800-
SOUTH CENTRAL WISCONSIN

CITY           SKY/WX    TMP DP  RH WIND       PRES   REMARKS
REEDSBURG      CLEAR     59  59 100 CALM      29.97S
BARABOO/DELLS  CLEAR     60  57  90 CALM      29.98S
LONE ROCK      CLEAR     59  59 100 CALM      29.97S
MINERAL POINT  CLEAR     63  63 100 SE5       29.99S
MADISON        CLEAR     61  60  97 CALM      29.98F
MIDDLETON      CLEAR     59  59 100 CALM      29.99F
WATERTOWN      CLEAR     59  59 100 CALM      29.99F
MONROE         CLEAR     64  61  88 S6        29.99F
JANESVILLE     CLEAR     63  63 100 CALM      29.99F
$$

WIZ051-052-058>065-066-070>072-200800-
SOUTHEAST WISCONSIN

CITY           SKY/WX    TMP DP  RH WIND       PRES   REMARKS
MILWAUKEE      CLEAR     67  58  72 SW6       30.01R
WAUKESHA       CLEAR     63  59  88 S5        30.02R
MILWAUKEE/TIMM CLEAR     61  55  82 CALM      30.02R
RACINE         CLEAR     66  58  75 SW6       30.02R
KENOSHA        CLEAR     62  56  80 CALM      30.01R
FOND DU LAC    CLEAR     62  58  86 S3        29.98S
SHEBOYGAN      CLEAR     61  61 100 SW3       29.99R
WEST BEND      CLEAR     57  57 100 CALM      30.00S FOG
JUNEAU         CLEAR     61  60  96 CALM      30.01S
$$

LSZ147-162-200800-
LAKE SUPERIOR

STATION/POSITION TIME  TEMP    WIND        PRES    WAVE
                       AIR SEA DIR/SP/G            HT/PER
                 (UTC) (F)     (DEG/KT/KT) (MB)    (FT/S)
W MID LAKE BUOY  0650   63 60  220/ 10/ 12 1011.1S   1
DEVILS ISLAND    0700   69     200/ 10/ 12 1011.3F
PORT WING        0440   69     180/  4/  6 1011.9
SAXON HARBOR     0630   65     200/  5/  8 1012.2S
$$

LMZ867-665-643>646-200800-
LAKE MICHIGAN

STATION/POSITION TIME  TEMP    WIND        PRES    WAVE
                       AIR SEA DIR/SP/G            HT/PER
                 (UTC) (F)     (DEG/KT/KT) (MB)    (FT/S)
S GREEN BAY BUOY 0630   71 71  230/  8/ 10 1014.2R
N MID LAKE BUOY  0650   69 67  240/ 10/ 12 1013.9R   2/ 4
NORTHPORT PIER   0640   69     280/  4/  9 1013.5R
KEWAUNEE LAKESHO 0654   65     300/  4/  5 1013.9R
SHEBOYGAN LAKESH 0700   69     250/  9/ 10 1014.8R
PORT WASHINGTON  0630   68     270/  3/  3 1016.3R
ATWATER BUOY     0609   71 70  190/  6/  8 1015.7R
MILWAUKEE LAKESH 0700   71     230/  9/ 10   N/A
S MID LAKE BUOY  0650   72 71  170/  8/ 10 1015.8S   1
KENOSHA   LAKESH 0700   69     220/  4/  6 1015.9
$$

TC  - TEMPERATURE IN CELSIUS
VSB - VISIBILITY IN STATUTE MILES
WCI - WIND CHILL INDEX
HX  - HEAT INDEX




USA.gov is the U.S. government's official web portal to all federal, state and local government web resources and services.